[[{"header":{"parameterUnit":"m.s-1","parameterCategory":2,"la1":30.2991,"la2":30.254,"lo1":-89.0895,"lo2":-89.0444,"dy":0.0017,"dx":0.0017,"nx":28,"ny":28,"refTime":"2025-12-06T03:00:00:Z","depth":"0","parameterNumber":2,"parameterNumberName":"U-component_of_CURRENTS"},"data":[0,0,0,0,0,0,0,0,0,0,0,0,0,0,0,0,0,0,0,0,0,0,0,0,0,0,0,0,0,0,0,0,0,0,0,0,0,0,0,0,0,0,0,0,0,0,0,0,0,0,0,0,0,0,0,0,0,0,-0.3264,-0.3263,0,-0.3219,-0.3218,-0.3217,-0.3113,-0.3111,-0.3109,-0.3107,-0.3048,-0.3048,-0.3049,0,0,0,0,0,0,0,0,0,0,0,0,0,-0.3223,-0.3225,-0.3264,-0.3263,-0.3263,-0.3219,-0.3218,-0.3217,-0.3113,-0.3111,-0.3108,-0.3106,-0.3048,-0.3048,-0.3049,0,0,0,0,0,0,0,0,0,0,0,0,0,-0.3215,-0.3225,-0.3264,-0.3207,-0.3201,-0.3219,-0.3218,-0.3217,-0.3114,-0.3111,-0.3108,-0.3105,-0.3048,-0.3048,-0.3049,-0.3112,0,0,-0.305,-0.305,0,0,0,0,0,0,0,0,-0.3215,-0.3216,-0.3216,-0.3211,-0.3205,-0.317,-0.3182,-0.3182,-0.3115,-0.3145,-0.3107,-0.3103,-0.3091,-0.3087,-0.3084,-0.3109,-0.3107,-0.305,-0.305,-0.3051,-0.3051,0,0,0,0,0,0,0,-0.3216,-0.3217,-0.3244,-0.3215,-0.3209,-0.3171,-0.3167,-0.3181,-0.3134,-0.3142,-0.3135,-0.3134,-0.3087,-0.3083,-0.3081,-0.3106,-0.305,-0.305,-0.3051,-0.3051,-0.3089,-0.309,0,0,0,0,0,0,-0.3231,-0.3218,-0.3246,-0.3243,-0.3204,-0.3175,-0.317,-0.3183,-0.3134,-0.3124,-0.3136,-0.3129,-0.3084,-0.3081,-0.3079,-0.3077,-0.305,-0.3051,-0.3051,-0.3088,-0.3089,-0.309,0,0,0,0,0,0,-0.323,-0.3234,-0.3247,-0.3229,-0.3228,-0.3179,-0.3194,-0.3183,-0.3168,-0.313,-0.3118,-0.313,-0.3082,-0.3078,-0.307,-0.3076,-0.3051,-0.3052,-0.3087,-0.3089,-0.309,-0.312,0,0,0,0,0,0,-0.323,-0.3235,-0.3245,-0.3231,-0.323,-0.325,-0.3197,-0.3185,-0.3173,-0.3163,-0.3122,-0.3113,-0.3079,-0.3069,-0.307,-0.3076,-0.3052,-0.3087,-0.3088,-0.3089,-0.3118,-0.3122,-0.3126,0,0,0,0,0,-0.3229,-0.3259,-0.3246,-0.3248,-0.3248,-0.3251,-0.3247,-0.3199,-0.3176,-0.3174,-0.3138,-0.3114,-0.3078,-0.3071,-0.3072,-0.3078,-0.3086,-0.3088,-0.3089,-0.3117,-0.3121,-0.3126,0,0,0,0,0,0,-0.3237,-0.3251,-0.3236,-0.3265,-0.3254,-0.3233,-0.3233,-0.3212,-0.3186,-0.3174,-0.3132,-0.3122,-0.3113,-0.3104,-0.3096,-0.3093,-0.3077,-0.3079,-0.3097,-0.3102,-0.3106,-0.3108,-0.3052,0,0,0,0,0,-0.3251,-0.3276,-0.3273,-0.329,-0.3294,-0.3269,-0.3264,-0.3238,-0.3218,-0.3202,-0.3168,-0.3142,-0.3128,-0.3119,-0.3104,-0.312,-0.3112,-0.3122,-0.3126,-0.3129,-0.3132,-0.3138,-0.3143,-0.3095,-0.3095,-0.3095,0,0,-0.3253,-0.3267,-0.3276,-0.3294,-0.3283,-0.3277,-0.3257,-0.3259,-0.3241,-0.3206,-0.3172,-0.3158,-0.3136,-0.3128,-0.3125,-0.3116,-0.3138,-0.3131,-0.3134,-0.3135,-0.3141,-0.3145,-0.3149,-0.3097,-0.3096,-0.3096,0,0,-0.3265,-0.3292,-0.3306,-0.3302,-0.3301,-0.3294,-0.3299,-0.3282,-0.3263,-0.3249,-0.3211,-0.3205,-0.3179,-0.3161,-0.3152,-0.3181,-0.3157,-0.3173,-0.3194,-0.3201,-0.3205,-0.3208,-0.32,-0.3202,-0.3175,-0.3175,-0.3176,0,-0.3256,-0.3272,-0.3307,-0.3306,-0.3296,-0.3303,-0.3292,-0.3291,-0.3263,-0.3263,-0.3235,-0.3213,-0.3194,-0.3196,-0.3189,-0.3189,-0.3181,-0.3177,-0.3206,-0.3209,-0.3212,-0.3202,-0.3204,-0.3177,-0.3177,-0.3177,-0.3177,0,-0.3261,-0.3263,-0.3275,-0.3274,-0.3284,-0.3278,-0.3286,-0.3292,-0.3281,-0.327,-0.3271,-0.3251,-0.3235,-0.3233,-0.3214,-0.323,-0.3214,-0.3209,-0.3193,-0.3218,-0.3207,-0.3208,-0.318,-0.3179,-0.3178,-0.3178,0,0,-0.3231,-0.3267,-0.3261,-0.3247,-0.326,-0.3265,-0.328,-0.329,-0.3304,-0.3287,-0.3293,-0.3277,-0.3278,-0.3269,-0.3259,-0.3265,-0.3274,-0.3243,-0.3243,-0.3233,-0.3275,-0.3195,-0.3189,-0.3271,-0.3272,-0.3272,-0.3257,0,-0.3195,-0.3191,-0.3228,-0.3204,-0.319,-0.3226,-0.3243,-0.3267,-0.3284,-0.33,-0.3312,-0.331,-0.329,-0.3288,-0.3293,-0.3284,-0.3281,-0.3278,-0.3254,-0.3253,-0.3178,-0.3189,-0.3034,-0.3002,-0.3258,-0.3258,-0.3258,0,-0.3158,-0.3156,-0.3135,-0.3162,-0.3166,-0.3167,-0.3212,-0.3227,-0.3284,-0.3308,-0.3331,-0.3339,-0.3353,-0.3331,-0.3328,-0.3324,-0.3298,-0.3288,-0.3287,-0.3203,-0.3177,-0.302,-0.2995,-0.2962,-0.3261,-0.3261,-0.326,0,-0.3082,-0.309,-0.3072,-0.3066,-0.3102,-0.3117,-0.3148,-0.3213,-0.3248,-0.3308,-0.3341,-0.3365,-0.337,-0.3361,-0.334,-0.3332,-0.3333,-0.3321,-0.3224,-0.3218,-0.3076,-0.3056,-0.3013,-0.3311,-0.3311,-0.3311,-0.3311,0,-0.3006,-0.2988,-0.3032,-0.3003,-0.3002,-0.306,-0.3089,-0.3139,-0.3223,-0.3259,-0.3326,-0.3355,-0.3377,-0.3383,-0.3356,-0.3293,-0.3343,-0.3225,-0.3209,-0.3081,-0.3063,-0.3019,-0.3044,-0.331,-0.331,-0.3311,-0.3311,0,-0.2899,-0.2936,-0.2905,-0.2937,-0.2954,-0.2945,-0.3041,-0.3071,-0.3171,-0.3221,-0.3242,-0.3343,-0.3346,-0.336,-0.3349,-0.3298,-0.3196,-0.3223,-0.3065,-0.303,-0.2885,-0.2917,-0.2869,-0.2791,-0.3104,-0.3102,-0.31,0,-0.2844,-0.2814,-0.2826,-0.2817,-0.2821,-0.2846,-0.2875,-0.3006,-0.3049,-0.3198,-0.3206,-0.3267,-0.327,-0.3249,-0.3185,-0.3124,-0.3113,-0.2943,-0.2896,-0.2852,-0.2878,-0.2903,-0.2844,-0.2721,-0.2716,-0.2713,-0.271,0,-0.2699,-0.2708,-0.2673,-0.2661,-0.2674,-0.2707,-0.2761,-0.2806,-0.2955,-0.3018,-0.3087,-0.3114,-0.312,-0.3006,-0.2952,-0.289,-0.2854,-0.2859,-0.2854,-0.2606,-0.2591,-0.2515,-0.2764,-0.2675,-0.2679,-0.2681,-0.2683,-0.2684,-0.2575,-0.2518,-0.2488,-0.247,-0.25,-0.2527,-0.2514,-0.2612,-0.2668,-0.273,-0.2866,-0.2861,-0.283,-0.273,-0.2683,-0.2527,-0.2613,-0.2428,-0.248,-0.2518,-0.241,-0.258,-0.2452,-0.2454,-0.2456,-0.2457,-0.2459,0,-0.2389,-0.2349,-0.2312,-0.2284,-0.2263,-0.2343,-0.2397,-0.2369,-0.2373,-0.2483,-0.2513,-0.2516,-0.2399,-0.2395,-0.2277,-0.2177,-0.213,-0.2129,-0.2126,-0.2089,-0.225,-0.2197,-0.1958,-0.1958,-0.1958,-0.1958,-0.1958,-0.1958,-0.228,-0.2168,-0.2148,-0.2042,-0.204,-0.1965,-0.1961,-0.1956,-0.1997,-0.2007,-0.2059,-0.2153,-0.2174,-0.2267,-0.2114,-0.2007,-0.1971,-0.1904,-0.197,-0.2087,-0.2119,-0.215,-0.2103,-0.1849,-0.1849,-0.1699,-0.1699,-0.1698]},{"header":{"parameterUnit":"m.s-1","parameterCategory":2,"la1":30.2991,"la2":30.254,"lo1":-89.0895,"lo2":-89.0444,"dy":0.0017,"dx":0.0017,"nx":28,"ny":28,"refTime":"2025-12-06T03:00:00:Z","depth":"0","parameterNumber":3,"parameterNumberName":"V-component_of_CURRENTS"},"data":[0,0,0,0,0,0,0,0,0,0,0,0,0,0,0,0,0,0,0,0,0,0,0,0,0,0,0,0,0,0,0,0,0,0,0,0,0,0,0,0,0,0,0,0,0,0,0,0,0,0,0,0,0,0,0,0,0,0,-0.035,-0.0349,0,-0.0242,-0.0241,-0.0239,-0.0165,-0.0165,-0.0164,-0.0164,0.0017,0.0022,0.0026,0,0,0,0,0,0,0,0,0,0,0,0,0,-0.0415,-0.0414,-0.0351,-0.0349,-0.0348,-0.0242,-0.0241,-0.0239,-0.0165,-0.0165,-0.0164,-0.0164,0.0016,0.0021,0.0027,0,0,0,0,0,0,0,0,0,0,0,0,0,-0.0353,-0.0414,-0.0351,-0.03,-0.0294,-0.0243,-0.0241,-0.0239,-0.0165,-0.0165,-0.0164,-0.0164,0.0014,0.0021,0.0027,0.0058,0,0,0.0048,0.0051,0,0,0,0,0,0,0,0,-0.0357,-0.0351,-0.0309,-0.0303,-0.0297,-0.0218,-0.0197,-0.0137,-0.0165,-0.0212,-0.0164,-0.0163,-0.0056,-0.0044,-0.0023,0.0066,0.0074,0.0048,0.0052,0.0055,0.0057,0,0,0,0,0,0,0,-0.0361,-0.0354,-0.0306,-0.0307,-0.03,-0.0256,-0.0247,-0.0185,-0.0136,-0.0208,-0.0203,-0.0194,-0.0052,-0.003,-0.0018,0.0077,0.0048,0.0054,0.0058,0.0061,0.0219,0.0219,0,0,0,0,0,0,-0.0383,-0.0359,-0.0309,-0.0303,-0.0328,-0.0256,-0.0245,-0.0243,-0.0138,-0.0123,-0.0195,-0.0191,-0.0041,-0.0026,-0.0011,0.004,0.0055,0.0062,0.0065,0.0219,0.0219,0.0219,0,0,0,0,0,0,-0.0385,-0.038,-0.0313,-0.0329,-0.0318,-0.0256,-0.0253,-0.0241,-0.0217,-0.0129,-0.0112,-0.0184,-0.004,-0.0021,0.0046,0.0048,0.0065,0.0071,0.0219,0.0219,0.0219,0.0138,0,0,0,0,0,0,-0.0388,-0.0382,-0.0388,-0.0331,-0.0318,-0.0289,-0.0253,-0.0239,-0.0214,-0.0208,-0.0114,-0.0097,-0.0038,0.0035,0.0052,0.0057,0.0076,0.0219,0.0219,0.0219,0.014,0.0135,0.0131,0,0,0,0,0,-0.039,-0.0406,-0.0389,-0.0383,-0.0329,-0.029,-0.0278,-0.023,-0.0214,-0.0207,-0.0141,-0.0099,0.0049,0.0041,0.0061,0.0068,0.0219,0.0219,0.0219,0.0142,0.0136,0.0131,0,0,0,0,0,0,-0.0437,-0.0398,-0.0379,-0.0382,-0.0341,-0.0278,-0.027,-0.0238,-0.0181,-0.0176,-0.0093,-0.007,-0.0013,0.0038,0.0027,0.0114,0.0139,0.0143,0.0074,0.0069,0.0064,0.0045,0.0082,0,0,0,0,0,-0.0452,-0.0455,-0.0403,-0.0406,-0.039,-0.0332,-0.0311,-0.0278,-0.0222,-0.0197,-0.013,-0.006,0.0004,0.0043,0.0106,0.0156,0.0207,0.0173,0.0168,0.0164,0.0162,0.0235,0.0236,0.0221,0.0221,0.0221,0,0,-0.0472,-0.0452,-0.0454,-0.0417,-0.0382,-0.0361,-0.0318,-0.0293,-0.0271,-0.0185,-0.0136,-0.0073,0.0013,0.0068,0.0099,0.0113,0.0195,0.0164,0.016,0.0161,0.0235,0.0237,0.0238,0.0221,0.0221,0.0221,0,0,-0.0516,-0.0495,-0.051,-0.0476,-0.0434,-0.0392,-0.039,-0.0327,-0.0295,-0.0242,-0.0176,-0.0114,-0.0017,0.0046,0.009,0.0098,0.0164,0.0115,0.0084,0.0153,0.0155,0.0157,0.0218,0.0226,0.0116,0.0116,0.0116,0,-0.0545,-0.0547,-0.0507,-0.0501,-0.0478,-0.0412,-0.0408,-0.0364,-0.0286,-0.026,-0.0237,-0.0095,-0.0027,0.005,0.0052,0.0088,0.0134,0.0095,0.0146,0.0149,0.0153,0.0215,0.0225,0.0112,0.0113,0.0113,0.0114,0,-0.0591,-0.0582,-0.0586,-0.0557,-0.0527,-0.0513,-0.0447,-0.0414,-0.0369,-0.0318,-0.0242,-0.0146,-0.0062,-0.0032,0.0015,0.0075,0.0101,0.0126,0.0154,0.0149,0.0215,0.0227,0.0107,0.0108,0.0109,0.011,0,0,-0.0676,-0.0631,-0.063,-0.062,-0.0553,-0.0537,-0.0499,-0.0444,-0.0423,-0.034,-0.0299,-0.019,-0.014,-0.0087,-0.0016,0.0046,0.0109,0.0088,0.0094,0.0138,0.0258,0.0306,0.0324,0.0141,0.0142,0.0144,0.0292,0,-0.0722,-0.0729,-0.0688,-0.0681,-0.0672,-0.0597,-0.057,-0.0511,-0.0447,-0.0389,-0.0285,-0.0219,-0.0159,-0.0122,-0.0049,0.0072,0.0138,0.0066,0.0267,0.0272,0.0307,0.0339,0.0361,0.0498,0.0304,0.0306,0.0307,0,-0.0782,-0.0771,-0.0779,-0.0737,-0.0729,-0.0714,-0.0657,-0.0621,-0.0521,-0.0473,-0.0383,-0.0297,-0.0183,-0.0141,0.0063,0.0013,0.0124,0.0216,0.0225,0.0307,0.0343,0.0475,0.0527,0.0713,0.0327,0.0325,0.0324,0,-0.0867,-0.0838,-0.0849,-0.083,-0.0771,-0.0766,-0.0735,-0.0652,-0.0628,-0.0522,-0.0487,-0.034,-0.0263,-0.0105,0.0091,0.0077,0.0314,0.0322,0.0472,0.0477,0.0556,0.0564,0.0804,0.046,0.046,0.0459,0.0459,0,-0.0934,-0.0943,-0.0891,-0.0894,-0.0905,-0.0839,-0.0838,-0.0786,-0.0713,-0.0683,-0.0538,-0.047,-0.0252,-0.0086,0.0082,0.0325,0.0316,0.0479,0.0525,0.0528,0.0532,0.0745,0.0805,0.0465,0.0464,0.0463,0.0462,0,-0.1028,-0.0996,-0.1001,-0.0953,-0.0947,-0.0954,-0.092,-0.0913,-0.083,-0.0783,-0.0753,-0.0562,-0.0337,-0.0104,0.0167,0.0317,0.0655,0.0622,0.0607,0.0649,0.0942,0.0995,0.1264,0.1366,0.0806,0.0808,0.081,0,-0.1079,-0.1091,-0.1058,-0.1068,-0.1052,-0.105,-0.1053,-0.0986,-0.097,-0.083,-0.081,-0.059,-0.0411,0.0016,0.0316,0.0636,0.0768,0.0834,0.0814,0.0981,0.1075,0.1108,0.1175,0.0888,0.089,0.0892,0.0894,0,-0.1156,-0.1143,-0.1136,-0.1157,-0.1168,-0.1177,-0.1169,-0.118,-0.1089,-0.1019,-0.0877,-0.0721,-0.0299,0.0086,0.0502,0.0693,0.0964,0.0882,0.1073,0.1179,0.1215,0.1326,0.0759,0.0911,0.0909,0.0908,0.0907,0.0906,-0.1205,-0.1217,-0.1207,-0.1229,-0.1253,-0.1283,-0.1292,-0.1267,-0.1228,-0.1099,-0.0941,-0.0665,-0.0109,0.0491,0.0714,0.118,0.1132,0.1312,0.1368,0.1391,0.148,0.0944,0.1133,0.1132,0.1132,0.1132,0.1131,0,-0.1243,-0.1254,-0.128,-0.1298,-0.1342,-0.1333,-0.1349,-0.1325,-0.1273,-0.1106,-0.0928,-0.0322,0.0229,0.0743,0.1397,0.1652,0.17,0.1779,0.1841,0.1892,0.1449,0.1443,0.1685,0.1685,0.1685,0.1685,0.1685,0.1684,-0.1258,-0.1287,-0.1291,-0.1356,-0.1382,-0.1409,-0.1414,-0.1359,-0.1234,-0.092,-0.0587,-0.0313,0.043,0.1466,0.2067,0.2122,0.233,0.2305,0.2429,0.2127,0.2087,0.2049,0.2063,0.2431,0.2432,0.2851,0.2855,0.2858]}],[{"header":{"parameterUnit":"m.s-1","parameterCategory":2,"la1":30.2991,"la2":30.254,"lo1":-89.0895,"lo2":-89.0444,"dy":0.0017,"dx":0.0017,"nx":28,"ny":28,"refTime":"2025-12-06T03:00:00:Z","depth":"2","parameterNumber":2,"parameterNumberName":"U-component_of_CURRENTS"},"data":[0,0,0,0,0,0,0,0,0,0,0,0,0,0,0,0,0,0,0,0,0,0,0,0,0,0,0,0,0,0,0,0,0,0,0,0,0,0,0,0,0,0,0,0,0,0,0,0,0,0,0,0,0,0,0,0,0,0,-0.2672,-0.2672,0,-0.2714,-0.2714,-0.2714,-0.2676,-0.2674,-0.2673,-0.2672,-0.2644,-0.2645,-0.2645,0,0,0,0,0,0,0,0,0,0,0,0,0,-0.2565,-0.2567,-0.2672,-0.2673,-0.2673,-0.2714,-0.2714,-0.2714,-0.2676,-0.2674,-0.2673,-0.2671,-0.2644,-0.2645,-0.2645,0,0,0,0,0,0,0,0,0,0,0,0,0,-0.2606,-0.2568,-0.2672,-0.2662,-0.2661,-0.2714,-0.2714,-0.2714,-0.2676,-0.2674,-0.2672,-0.2671,-0.2644,-0.2645,-0.2645,-0.2686,0,0,-0.2647,-0.2647,0,0,0,0,0,0,0,0,-0.2604,-0.261,-0.2662,-0.2662,-0.2662,-0.2691,-0.2667,-0.2703,-0.2677,-0.2667,-0.2672,-0.267,-0.2657,-0.2657,-0.2665,-0.2685,-0.2684,-0.2647,-0.2648,-0.2648,-0.2648,0,0,0,0,0,0,0,-0.2601,-0.2608,-0.2685,-0.2663,-0.2663,-0.2658,-0.2661,-0.2673,-0.2668,-0.2667,-0.2666,-0.2677,-0.2656,-0.2664,-0.2663,-0.2684,-0.2647,-0.2648,-0.2648,-0.2648,-0.2701,-0.2702,0,0,0,0,0,0,-0.2606,-0.2606,-0.2683,-0.2686,-0.2632,-0.2662,-0.2665,-0.2681,-0.2669,-0.2667,-0.2678,-0.2675,-0.2664,-0.2663,-0.2662,-0.2683,-0.2648,-0.2648,-0.2649,-0.27,-0.2701,-0.2702,0,0,0,0,0,0,-0.2603,-0.2612,-0.2682,-0.2649,-0.2658,-0.2666,-0.2683,-0.2682,-0.2691,-0.2679,-0.2674,-0.2688,-0.2662,-0.2661,-0.267,-0.2682,-0.2649,-0.2649,-0.2699,-0.27,-0.2702,-0.2742,0,0,0,0,0,0,-0.26,-0.2611,-0.2624,-0.265,-0.266,-0.2713,-0.2685,-0.2685,-0.2702,-0.2698,-0.2686,-0.2681,-0.2661,-0.2669,-0.2671,-0.2683,-0.265,-0.2697,-0.2699,-0.2701,-0.2739,-0.2744,-0.2749,0,0,0,0,0,-0.2596,-0.2624,-0.2625,-0.2634,-0.2678,-0.2715,-0.272,-0.2716,-0.2705,-0.2715,-0.2703,-0.2682,-0.2682,-0.2671,-0.2672,-0.2685,-0.2696,-0.2699,-0.2701,-0.2737,-0.2743,-0.2749,0,0,0,0,0,0,-0.2589,-0.2624,-0.2625,-0.2662,-0.2687,-0.2709,-0.2725,-0.2727,-0.273,-0.2723,-0.2701,-0.2697,-0.2706,-0.2698,-0.2687,-0.2706,-0.2684,-0.2687,-0.2711,-0.2717,-0.2722,-0.2722,-0.265,0,0,0,0,0,-0.2596,-0.2617,-0.2652,-0.268,-0.2696,-0.2714,-0.2729,-0.2732,-0.274,-0.274,-0.273,-0.2722,-0.2721,-0.2719,-0.2717,-0.2738,-0.2727,-0.2745,-0.275,-0.2754,-0.2756,-0.2759,-0.2764,-0.271,-0.271,-0.271,0,0,-0.2605,-0.2623,-0.2638,-0.2679,-0.2696,-0.2723,-0.2717,-0.2749,-0.2762,-0.2738,-0.2748,-0.2742,-0.2731,-0.2742,-0.2746,-0.2734,-0.2765,-0.2757,-0.2761,-0.276,-0.2762,-0.2767,-0.2772,-0.2711,-0.2711,-0.2711,0,0,-0.2621,-0.2648,-0.2666,-0.269,-0.2723,-0.2739,-0.2751,-0.278,-0.2782,-0.2803,-0.2782,-0.2788,-0.279,-0.2782,-0.2779,-0.2817,-0.2791,-0.2815,-0.284,-0.2843,-0.2847,-0.2851,-0.2844,-0.2846,-0.2817,-0.2817,-0.2817,0,-0.2625,-0.2649,-0.2678,-0.27,-0.272,-0.2746,-0.277,-0.279,-0.2813,-0.282,-0.2806,-0.2817,-0.2808,-0.2823,-0.2828,-0.2828,-0.282,-0.2817,-0.2849,-0.2852,-0.2855,-0.2847,-0.2849,-0.2819,-0.2819,-0.2818,-0.2818,0,-0.2644,-0.2669,-0.2686,-0.2715,-0.2747,-0.2774,-0.281,-0.2834,-0.2842,-0.2853,-0.2872,-0.2867,-0.2868,-0.2871,-0.2859,-0.288,-0.2864,-0.2854,-0.2832,-0.2863,-0.2852,-0.2854,-0.2822,-0.2821,-0.2821,-0.282,0,0,-0.2619,-0.2685,-0.2686,-0.2701,-0.2754,-0.278,-0.2821,-0.2858,-0.2881,-0.2897,-0.2918,-0.2923,-0.2922,-0.2919,-0.2911,-0.2916,-0.293,-0.2895,-0.2894,-0.2884,-0.2929,-0.2846,-0.284,-0.2924,-0.2924,-0.2925,-0.2912,0,-0.2611,-0.2651,-0.2689,-0.2725,-0.2747,-0.2797,-0.2833,-0.2875,-0.2902,-0.2931,-0.2941,-0.2955,-0.294,-0.2942,-0.2947,-0.2938,-0.2937,-0.2934,-0.2903,-0.2902,-0.2822,-0.284,-0.2613,-0.2576,-0.2914,-0.2914,-0.2914,0,-0.2596,-0.2621,-0.2659,-0.2723,-0.274,-0.2769,-0.283,-0.2866,-0.2925,-0.2951,-0.2976,-0.2986,-0.3004,-0.2983,-0.2982,-0.298,-0.2956,-0.2945,-0.2944,-0.2853,-0.2822,-0.26,-0.2566,-0.2917,-0.2916,-0.2916,-0.2916,0,-0.253,-0.2596,-0.2621,-0.2642,-0.2723,-0.2747,-0.2789,-0.2859,-0.2895,-0.2956,-0.2986,-0.3014,-0.302,-0.3012,-0.2992,-0.2988,-0.2984,-0.2973,-0.2875,-0.2869,-0.2662,-0.2636,-0.2963,-0.2963,-0.2963,-0.2963,-0.2963,0,-0.2484,-0.2499,-0.2592,-0.2596,-0.2629,-0.2705,-0.2747,-0.28,-0.2879,-0.291,-0.2978,-0.3,-0.3027,-0.3029,-0.3006,-0.2943,-0.2992,-0.2878,-0.286,-0.267,-0.2646,-0.293,-0.2927,-0.2963,-0.2963,-0.2963,-0.2963,0,-0.2387,-0.2453,-0.2482,-0.2568,-0.2593,-0.2611,-0.2711,-0.274,-0.2835,-0.2878,-0.2898,-0.2988,-0.2989,-0.3004,-0.2992,-0.2944,-0.2906,-0.2868,-0.264,-0.2595,-0.2786,-0.2785,-0.2759,-0.2756,-0.2753,-0.2751,-0.2749,0,-0.2342,-0.2346,-0.2435,-0.2447,-0.2476,-0.2528,-0.256,-0.2684,-0.272,-0.2851,-0.2852,-0.2909,-0.2898,-0.2874,-0.2811,-0.2753,-0.2835,-0.251,-0.2459,-0.278,-0.2766,-0.2769,-0.2771,-0.2201,-0.2195,-0.219,-0.2186,0,-0.2232,-0.2271,-0.229,-0.2322,-0.2355,-0.24,-0.2457,-0.2491,-0.2623,-0.267,-0.2716,-0.2729,-0.2729,-0.2573,-0.2524,-0.2458,-0.2506,-0.2405,-0.279,-0.2295,-0.2255,-0.2241,-0.2261,-0.2141,-0.2145,-0.2149,-0.2151,-0.2153,-0.214,-0.2127,-0.2159,-0.2175,-0.2215,-0.2234,-0.2219,-0.2297,-0.2332,-0.2362,-0.2484,-0.2429,-0.2432,-0.2238,-0.2143,-0.2073,-0.224,-0.2126,-0.2141,-0.2162,-0.2106,-0.2064,-0.1904,-0.1907,-0.191,-0.1912,-0.1914,0,-0.2001,-0.2,-0.2007,-0.202,-0.2,-0.2077,-0.211,-0.2068,-0.204,-0.2104,-0.2109,-0.1912,-0.1822,-0.1844,-0.167,-0.1644,-0.1622,-0.1569,-0.1534,-0.1578,-0.1618,-0.1535,-0.1182,-0.118,-0.1178,-0.1176,0,0,-0.1919,-0.1871,-0.1872,-0.1795,-0.1801,-0.1725,-0.1708,-0.1669,-0.1672,-0.1601,-0.1573,-0.1711,-0.1773,-0.1473,-0.1408,-0.127,-0.1408,-0.1202,-0.1785,-0.1786,-0.1824,-0.193,-0.1852,0,0,0,0,0]},{"header":{"parameterUnit":"m.s-1","parameterCategory":2,"la1":30.2991,"la2":30.254,"lo1":-89.0895,"lo2":-89.0444,"dy":0.0017,"dx":0.0017,"nx":28,"ny":28,"refTime":"2025-12-06T03:00:00:Z","depth":"2","parameterNumber":3,"parameterNumberName":"V-component_of_CURRENTS"},"data":[0,0,0,0,0,0,0,0,0,0,0,0,0,0,0,0,0,0,0,0,0,0,0,0,0,0,0,0,0,0,0,0,0,0,0,0,0,0,0,0,0,0,0,0,0,0,0,0,0,0,0,0,0,0,0,0,0,0,-0.0299,-0.0298,0,-0.0206,-0.0205,-0.0204,-0.0135,-0.0135,-0.0135,-0.0134,0.0032,0.0036,0.004,0,0,0,0,0,0,0,0,0,0,0,0,0,-0.0346,-0.0346,-0.0299,-0.0298,-0.0297,-0.0206,-0.0205,-0.0203,-0.0135,-0.0135,-0.0134,-0.0134,0.003,0.0035,0.004,0,0,0,0,0,0,0,0,0,0,0,0,0,-0.0295,-0.0346,-0.0299,-0.0253,-0.0248,-0.0207,-0.0205,-0.0203,-0.0136,-0.0135,-0.0134,-0.0134,0.0029,0.0035,0.0041,0.0066,0,0,0.0059,0.0062,0,0,0,0,0,0,0,0,-0.0298,-0.0293,-0.0261,-0.0256,-0.0251,-0.0183,-0.0161,-0.011,-0.0136,-0.0176,-0.0134,-0.0133,-0.0035,-0.0024,-0.0006,0.0073,0.008,0.006,0.0063,0.0066,0.0068,0,0,0,0,0,0,0,-0.0302,-0.0296,-0.026,-0.026,-0.0254,-0.0214,-0.0206,-0.0151,-0.0107,-0.0173,-0.0168,-0.0161,-0.0031,-0.0012,-0.0001,0.0083,0.006,0.0065,0.0069,0.0071,0.0215,0.0215,0,0,0,0,0,0,-0.0322,-0.03,-0.0263,-0.0257,-0.0276,-0.0214,-0.0205,-0.0204,-0.0109,-0.0096,-0.0162,-0.0158,-0.0023,-0.0009,0.0005,0.0053,0.0066,0.0072,0.0075,0.0215,0.0215,0.0215,0,0,0,0,0,0,-0.0323,-0.032,-0.0267,-0.0278,-0.0268,-0.0214,-0.0213,-0.0203,-0.0182,-0.0102,-0.0086,-0.0153,-0.0022,-0.0004,0.0057,0.0059,0.0074,0.008,0.0214,0.0215,0.0215,0.0141,0,0,0,0,0,0,-0.0325,-0.0321,-0.0328,-0.028,-0.0269,-0.0248,-0.0214,-0.0201,-0.018,-0.0175,-0.0089,-0.0073,-0.002,0.0047,0.0063,0.0068,0.0085,0.0214,0.0215,0.0215,0.0143,0.0139,0.0135,0,0,0,0,0,-0.0327,-0.0343,-0.0329,-0.0325,-0.0281,-0.0248,-0.0239,-0.0196,-0.0181,-0.0175,-0.0114,-0.0076,0.0061,0.0052,0.0071,0.0078,0.0214,0.0214,0.0215,0.0145,0.014,0.0135,0,0,0,0,0,0,-0.0367,-0.0336,-0.032,-0.0326,-0.0292,-0.0238,-0.0232,-0.0203,-0.0152,-0.0146,-0.007,-0.005,0.0003,0.005,0.0039,0.012,0.0142,0.0146,0.0083,0.0079,0.0075,0.0057,0.009,0,0,0,0,0,-0.0382,-0.0387,-0.0343,-0.0349,-0.0335,-0.0285,-0.0268,-0.024,-0.0189,-0.0167,-0.0106,-0.004,0.0018,0.0055,0.0111,0.0158,0.0202,0.0174,0.0169,0.0166,0.0164,0.0228,0.0229,0.0217,0.0217,0.0217,0,0,-0.0401,-0.0384,-0.0387,-0.0358,-0.0328,-0.0311,-0.0273,-0.0253,-0.0233,-0.0156,-0.011,-0.0053,0.0026,0.0078,0.0106,0.0119,0.0192,0.0166,0.0162,0.0163,0.0229,0.023,0.0231,0.0217,0.0217,0.0217,0,0,-0.044,-0.0424,-0.0438,-0.0411,-0.0376,-0.034,-0.0338,-0.0284,-0.0255,-0.0208,-0.0148,-0.009,-0.0002,0.0057,0.0098,0.0106,0.0164,0.0122,0.0094,0.0156,0.0157,0.0159,0.0209,0.0216,0.0124,0.0124,0.0124,0,-0.0466,-0.0471,-0.0436,-0.0434,-0.0415,-0.0357,-0.0356,-0.0316,-0.0249,-0.0225,-0.0204,-0.0074,-0.0011,0.0061,0.0064,0.0097,0.0136,0.0104,0.0149,0.0152,0.0155,0.0207,0.0215,0.012,0.0121,0.0121,0.0121,0,-0.0507,-0.0504,-0.0508,-0.0484,-0.046,-0.045,-0.0391,-0.0363,-0.0322,-0.0277,-0.0207,-0.0119,-0.0042,-0.0014,0.003,0.0085,0.0107,0.0131,0.0156,0.0152,0.0207,0.0217,0.0115,0.0117,0.0118,0.0119,0,0,-0.0579,-0.0547,-0.0546,-0.0541,-0.0485,-0.0472,-0.0437,-0.0389,-0.0371,-0.0296,-0.0259,-0.0158,-0.0113,-0.0064,0.0002,0.0059,0.0112,0.0097,0.0102,0.0137,0.0242,0.0275,0.029,0.0142,0.0144,0.0145,0.0268,0,-0.0619,-0.0633,-0.0597,-0.0596,-0.0593,-0.0528,-0.0502,-0.045,-0.0393,-0.0342,-0.0246,-0.0186,-0.013,-0.0096,-0.0029,0.008,0.0137,0.0076,0.0251,0.0256,0.0278,0.0303,0.0261,0.0369,0.0279,0.028,0.0282,0,-0.0672,-0.0668,-0.0682,-0.0652,-0.0645,-0.0634,-0.0584,-0.0552,-0.0462,-0.0418,-0.0337,-0.026,-0.0155,-0.0116,0.0066,0.0024,0.0122,0.0204,0.0212,0.0277,0.0309,0.0363,0.0391,0.03,0.0298,0.0297,0.0296,0,-0.0745,-0.0729,-0.0745,-0.0732,-0.0686,-0.0682,-0.0655,-0.0582,-0.0561,-0.0466,-0.0436,-0.0302,-0.0233,-0.0091,0.0084,0.0076,0.0281,0.0294,0.0418,0.0421,0.0438,0.044,0.0415,0.0415,0.0415,0.0414,0.0414,0,-0.0804,-0.0815,-0.0784,-0.0791,-0.0807,-0.0751,-0.0752,-0.0706,-0.0641,-0.0617,-0.0485,-0.0429,-0.0224,-0.0079,0.0073,0.0284,0.0279,0.0422,0.0462,0.0411,0.0409,0.0391,0.0387,0.0419,0.0418,0.0417,0.0416,0,-0.0882,-0.0862,-0.0878,-0.0848,-0.0845,-0.0858,-0.083,-0.0826,-0.0753,-0.0714,-0.0689,-0.0519,-0.0322,-0.0108,0.0135,0.0269,0.0464,0.0536,0.0459,0.0488,0.0562,0.0552,0.0685,0.0687,0.0689,0.0691,0.0692,0,-0.0925,-0.0943,-0.0936,-0.0952,-0.0943,-0.0948,-0.0953,-0.0894,-0.0881,-0.0765,-0.075,-0.0558,-0.0403,-0.0027,0.0239,0.0523,0.0524,0.0641,0.0623,0.0567,0.0593,0.058,0.0568,0.0614,0.0615,0.0615,0.0616,0,-0.0995,-0.0994,-0.1002,-0.1037,-0.1054,-0.1067,-0.1064,-0.1075,-0.0995,-0.0938,-0.0822,-0.0689,-0.0324,-0.0012,0.0356,0.0514,0.0594,0.0661,0.0643,0.0548,0.051,0.0531,0.052,0.062,0.062,0.062,0.0619,0.0619,-0.1044,-0.1068,-0.108,-0.111,-0.1138,-0.1166,-0.1176,-0.1154,-0.1124,-0.1013,-0.0887,-0.0652,-0.0351,0.0176,0.0435,0.0677,0.0672,0.0731,0.0726,0.0721,0.0686,0.0653,0.0784,0.0785,0.0785,0.0785,0.0786,0,-0.1087,-0.1112,-0.115,-0.118,-0.1222,-0.1216,-0.123,-0.1206,-0.1163,-0.1023,-0.0875,-0.0534,-0.0174,0.0148,0.0533,0.0761,0.0736,0.0793,0.0713,0.0707,0.0702,0.0663,0.0757,0.0758,0.0758,0.0759,0,0,-0.1108,-0.1154,-0.1165,-0.1234,-0.1263,-0.1289,-0.1293,-0.1237,-0.1128,-0.0977,-0.0798,-0.0555,-0.0161,0.0103,0.0386,0.0587,0.0588,0.0604,0.0602,0.0469,0.0461,0.0643,0.0574,0,0,0,0,0]}],[{"header":{"parameterUnit":"m.s-1","parameterCategory":2,"la1":30.2991,"la2":30.254,"lo1":-89.0895,"lo2":-89.0444,"dy":0.0017,"dx":0.0017,"nx":28,"ny":28,"refTime":"2025-12-06T03:00:00:Z","depth":"4","parameterNumber":2,"parameterNumberName":"U-component_of_CURRENTS"},"data":[0,0,0,0,0,0,0,0,0,0,0,0,0,0,0,0,0,0,0,0,0,0,0,0,0,0,0,0,0,0,0,0,0,0,0,0,0,0,0,0,0,0,0,0,0,0,0,0,0,0,0,0,0,0,0,0,0,0,-0.1771,-0.1772,0,-0.1888,-0.1889,-0.189,-0.1951,-0.1951,-0.1951,-0.1952,-0.2013,-0.2014,-0.2015,0,0,0,0,0,0,0,0,0,0,0,0,0,-0.1578,-0.1581,-0.177,-0.1772,-0.1774,-0.1888,-0.1889,-0.189,-0.1951,-0.1951,-0.1951,-0.1952,-0.2012,-0.2014,-0.2015,0,0,0,0,0,0,0,0,0,0,0,0,0,-0.1672,-0.1582,-0.177,-0.182,-0.1825,-0.1887,-0.1889,-0.1891,-0.1951,-0.1951,-0.1952,-0.1952,-0.2012,-0.2014,-0.2016,-0.2018,0,0,-0.2022,-0.2023,0,0,0,0,0,0,0,0,-0.1667,-0.1679,-0.1811,-0.1816,-0.1823,-0.1908,-0.1844,-0.1932,-0.195,-0.19,-0.1952,-0.1952,-0.1974,-0.1979,-0.1997,-0.2021,-0.2024,-0.2022,-0.2023,-0.2024,-0.2025,0,0,0,0,0,0,0,-0.166,-0.1674,-0.1814,-0.1813,-0.182,-0.1829,-0.1843,-0.1861,-0.193,-0.1905,-0.191,-0.1927,-0.1976,-0.1995,-0.1999,-0.2025,-0.2022,-0.2024,-0.2025,-0.2026,-0.2132,-0.2133,0,0,0,0,0,0,-0.1653,-0.1669,-0.181,-0.1818,-0.1748,-0.1833,-0.1848,-0.1878,-0.1931,-0.1941,-0.1927,-0.193,-0.1991,-0.1996,-0.2001,-0.2081,-0.2024,-0.2026,-0.2027,-0.213,-0.2132,-0.2134,0,0,0,0,0,0,-0.1648,-0.1665,-0.1806,-0.1747,-0.1766,-0.1836,-0.1868,-0.188,-0.1931,-0.1949,-0.1957,-0.197,-0.1992,-0.1998,-0.205,-0.2081,-0.2027,-0.2029,-0.2128,-0.2131,-0.2133,-0.2194,0,0,0,0,0,0,-0.1642,-0.1663,-0.1689,-0.1747,-0.1769,-0.1863,-0.1869,-0.1882,-0.194,-0.1946,-0.1988,-0.1992,-0.1993,-0.2047,-0.2052,-0.2083,-0.203,-0.2126,-0.2129,-0.2132,-0.219,-0.2199,-0.2206,0,0,0,0,0,-0.1635,-0.1665,-0.1689,-0.1707,-0.1801,-0.1865,-0.1877,-0.1925,-0.1942,-0.1971,-0.2004,-0.1993,-0.2069,-0.205,-0.2056,-0.2088,-0.2125,-0.2129,-0.2132,-0.2187,-0.2197,-0.2206,0,0,0,0,0,0,-0.1598,-0.1676,-0.1704,-0.1758,-0.1817,-0.1876,-0.191,-0.1943,-0.1994,-0.2006,-0.2017,-0.2025,-0.208,-0.2078,-0.2056,-0.2128,-0.2094,-0.2099,-0.2134,-0.2143,-0.2151,-0.2144,-0.2032,0,0,0,0,0,-0.1601,-0.1641,-0.1719,-0.1761,-0.1797,-0.186,-0.1895,-0.1934,-0.1983,-0.2008,-0.2041,-0.207,-0.2094,-0.2115,-0.2136,-0.2178,-0.2159,-0.2201,-0.2209,-0.2215,-0.2215,-0.2217,-0.2224,-0.2146,-0.2146,-0.2146,0,0,-0.1597,-0.1644,-0.1669,-0.1755,-0.1805,-0.1871,-0.1883,-0.1951,-0.2004,-0.2004,-0.2086,-0.2102,-0.2112,-0.2161,-0.2184,-0.2167,-0.223,-0.222,-0.2226,-0.2221,-0.2221,-0.2229,-0.2235,-0.2149,-0.2148,-0.2148,0,0,-0.1607,-0.1658,-0.1701,-0.1761,-0.1849,-0.1889,-0.1918,-0.2004,-0.2042,-0.2117,-0.2126,-0.2164,-0.2216,-0.2227,-0.2235,-0.2298,-0.227,-0.231,-0.2346,-0.2349,-0.2355,-0.236,-0.2348,-0.2351,-0.2313,-0.2314,-0.2314,0,-0.16,-0.1675,-0.1722,-0.179,-0.1843,-0.1904,-0.1972,-0.2021,-0.2112,-0.2139,-0.2153,-0.2229,-0.2243,-0.2283,-0.231,-0.2315,-0.2307,-0.2309,-0.2357,-0.2362,-0.2366,-0.2352,-0.2355,-0.2317,-0.2317,-0.2316,-0.2316,0,-0.1647,-0.1724,-0.1757,-0.186,-0.1916,-0.1986,-0.2063,-0.2121,-0.2172,-0.2214,-0.228,-0.2305,-0.2341,-0.2358,-0.2357,-0.2397,-0.2378,-0.2365,-0.233,-0.2377,-0.236,-0.2362,-0.2322,-0.2321,-0.232,-0.2319,0,0,-0.1595,-0.1759,-0.1775,-0.1842,-0.1966,-0.2013,-0.2098,-0.2181,-0.2228,-0.2303,-0.2354,-0.2406,-0.2415,-0.2424,-0.2428,-0.2439,-0.2466,-0.2423,-0.2421,-0.2404,-0.2467,-0.2304,-0.229,-0.2464,-0.2465,-0.2466,-0.2443,0,-0.1625,-0.1754,-0.1826,-0.1946,-0.2024,-0.2102,-0.2169,-0.2245,-0.2302,-0.2363,-0.239,-0.244,-0.244,-0.2461,-0.2475,-0.2472,-0.2475,-0.2473,-0.2429,-0.2427,-0.2271,-0.2288,-0.2468,-0.2445,-0.2445,-0.2445,-0.2445,0,-0.1648,-0.1738,-0.1866,-0.2003,-0.204,-0.2112,-0.2213,-0.228,-0.2363,-0.2406,-0.2454,-0.2478,-0.2517,-0.2504,-0.2517,-0.2519,-0.2498,-0.2488,-0.2486,-0.2311,-0.2268,-0.2388,-0.2448,-0.2448,-0.2448,-0.2448,-0.2447,0,-0.1585,-0.1756,-0.1854,-0.1912,-0.2075,-0.213,-0.2199,-0.2294,-0.234,-0.2428,-0.2463,-0.2513,-0.2535,-0.2536,-0.2523,-0.2527,-0.2516,-0.2513,-0.2343,-0.2332,-0.2459,-0.2454,-0.2506,-0.2506,-0.2506,-0.2506,-0.2506,0,-0.1575,-0.1658,-0.1841,-0.1901,-0.1995,-0.2109,-0.2191,-0.2262,-0.2353,-0.2385,-0.2474,-0.2487,-0.2546,-0.2546,-0.2531,-0.243,-0.2518,-0.234,-0.2311,-0.2486,-0.2484,-0.246,-0.2455,-0.2505,-0.2505,-0.2505,-0.2505,0,-0.1495,-0.1622,-0.1748,-0.193,-0.1978,-0.2042,-0.2177,-0.2216,-0.2324,-0.2366,-0.2393,-0.2475,-0.2467,-0.2495,-0.2487,-0.241,-0.2353,-0.2293,-0.2473,-0.2457,-0.2169,-0.2168,-0.2101,-0.2095,-0.209,-0.2086,-0.2082,0,-0.1458,-0.1526,-0.174,-0.1793,-0.1881,-0.199,-0.2041,-0.2178,-0.2206,-0.2323,-0.2311,-0.2362,-0.2391,-0.2245,-0.2302,-0.2248,-0.222,-0.2178,-0.2177,-0.2147,-0.2126,-0.2133,-0.2139,-0.2074,-0.2073,-0.2071,-0.207,0,-0.1387,-0.1488,-0.1593,-0.1708,-0.1789,-0.1864,-0.1947,-0.1956,-0.208,-0.2203,-0.216,-0.2148,-0.2131,-0.2119,-0.2087,-0.2054,-0.2203,-0.2124,-0.2135,-0.2134,-0.2113,-0.2099,-0.2111,-0.2052,-0.2055,-0.2057,-0.2058,0,-0.1317,-0.1378,-0.1517,-0.1594,-0.1684,-0.1698,-0.1772,-0.1792,-0.1842,-0.197,-0.1946,-0.2007,-0.2092,-0.2016,-0.1989,-0.1941,-0.1915,-0.1852,-0.1876,-0.1897,-0.1841,-0.1785,-0.1586,0,0,0,0,0,-0.1239,-0.1293,-0.1371,-0.1458,-0.1533,-0.1576,-0.1679,-0.175,-0.1873,-0.1782,-0.1858,-0.1831,-0.1792,-0.1832,-0.1738,-0.1906,-0.1931,-0.179,-0.1874,-0.1954,-0.1975,-0.1928,0,0,0,0,0,0,-0.1181,-0.1275,-0.1335,-0.1312,-0.1323,-0.1384,-0.1441,-0.1531,-0.1492,-0.1622,-0.1607,-0.1708,-0.1699,-0.1807,-0.1694,-0.1706,-0.1718,-0.1841,-0.1835,-0.1943,-0.1961,-0.1978,-0.1937,0,0,0,0,0]},{"header":{"parameterUnit":"m.s-1","parameterCategory":2,"la1":30.2991,"la2":30.254,"lo1":-89.0895,"lo2":-89.0444,"dy":0.0017,"dx":0.0017,"nx":28,"ny":28,"refTime":"2025-12-06T03:00:00:Z","depth":"4","parameterNumber":3,"parameterNumberName":"V-component_of_CURRENTS"},"data":[0,0,0,0,0,0,0,0,0,0,0,0,0,0,0,0,0,0,0,0,0,0,0,0,0,0,0,0,0,0,0,0,0,0,0,0,0,0,0,0,0,0,0,0,0,0,0,0,0,0,0,0,0,0,0,0,0,0,-0.0216,-0.0215,0,-0.0157,-0.0156,-0.0156,-0.0108,-0.0108,-0.0107,-0.0107,0.0021,0.0024,0.0027,0,0,0,0,0,0,0,0,0,0,0,0,0,-0.0229,-0.0229,-0.0216,-0.0215,-0.0215,-0.0157,-0.0156,-0.0155,-0.0108,-0.0108,-0.0107,-0.0107,0.002,0.0023,0.0027,0,0,0,0,0,0,0,0,0,0,0,0,0,-0.0201,-0.0229,-0.0216,-0.0185,-0.0182,-0.0157,-0.0156,-0.0155,-0.0108,-0.0108,-0.0107,-0.0107,0.0019,0.0023,0.0028,0.0046,0,0,0.0042,0.0044,0,0,0,0,0,0,0,0,-0.0202,-0.02,-0.0191,-0.0188,-0.0184,-0.0141,-0.0114,-0.0085,-0.0108,-0.0135,-0.0107,-0.0106,-0.0028,-0.002,-0.0009,0.0052,0.0057,0.0042,0.0045,0.0047,0.0048,0,0,0,0,0,0,0,-0.0205,-0.0202,-0.0191,-0.019,-0.0186,-0.0155,-0.015,-0.0108,-0.0083,-0.0132,-0.0129,-0.0125,-0.0026,-0.0013,-0.0005,0.0059,0.0042,0.0046,0.0049,0.0051,0.0164,0.0164,0,0,0,0,0,0,-0.0219,-0.0204,-0.0193,-0.0189,-0.0194,-0.0155,-0.015,-0.0154,-0.0084,-0.0074,-0.0126,-0.0123,-0.0021,-0.0011,-0.0,0.0037,0.0047,0.0051,0.0054,0.0164,0.0164,0.0164,0,0,0,0,0,0,-0.0219,-0.0219,-0.0195,-0.0196,-0.0191,-0.0156,-0.016,-0.0153,-0.0141,-0.008,-0.0069,-0.0122,-0.0021,-0.0007,0.0039,0.0042,0.0053,0.0058,0.0163,0.0164,0.0164,0.0106,0,0,0,0,0,0,-0.022,-0.0219,-0.0228,-0.0198,-0.0192,-0.0186,-0.016,-0.0152,-0.0141,-0.0137,-0.0073,-0.0061,-0.0019,0.0032,0.0044,0.0049,0.0061,0.0163,0.0163,0.0164,0.0107,0.0104,0.0101,0,0,0,0,0,-0.0221,-0.0236,-0.0229,-0.0228,-0.0205,-0.0187,-0.0181,-0.0152,-0.0141,-0.0139,-0.0092,-0.0063,0.0043,0.0036,0.005,0.0056,0.0163,0.0163,0.0164,0.0109,0.0105,0.0101,0,0,0,0,0,0,-0.0245,-0.0232,-0.0224,-0.0234,-0.0215,-0.0179,-0.0178,-0.0159,-0.0122,-0.0118,-0.0059,-0.0043,-0.0002,0.0035,0.0025,0.0091,0.0108,0.0111,0.0061,0.0058,0.0055,0.004,0.0065,0,0,0,0,0,-0.0257,-0.0265,-0.0242,-0.0251,-0.0244,-0.0213,-0.0203,-0.0185,-0.015,-0.0134,-0.0088,-0.0037,0.001,0.0039,0.0083,0.0119,0.0152,0.0133,0.013,0.0127,0.0124,0.0177,0.0178,0.0166,0.0166,0.0166,0,0,-0.0268,-0.0263,-0.0267,-0.0256,-0.024,-0.0233,-0.0205,-0.0197,-0.0185,-0.0124,-0.0093,-0.0048,0.0016,0.0057,0.0079,0.0089,0.0146,0.0127,0.0124,0.0124,0.0177,0.0178,0.0179,0.0166,0.0166,0.0166,0,0,-0.0296,-0.0292,-0.0307,-0.0294,-0.0278,-0.0254,-0.0255,-0.0223,-0.0203,-0.017,-0.0122,-0.0076,-0.0009,0.004,0.0073,0.008,0.0125,0.0094,0.0072,0.0123,0.0124,0.0125,0.0159,0.0164,0.0096,0.0096,0.0096,0,-0.031,-0.0327,-0.0307,-0.0313,-0.0305,-0.0268,-0.0273,-0.0246,-0.0201,-0.0183,-0.0168,-0.0066,-0.0015,0.0044,0.0047,0.0073,0.0103,0.0078,0.0117,0.012,0.0122,0.0157,0.0163,0.0094,0.0094,0.0094,0.0094,0,-0.0345,-0.0355,-0.0361,-0.0356,-0.0342,-0.0342,-0.0305,-0.0286,-0.0258,-0.0226,-0.0173,-0.0103,-0.0042,-0.0017,0.0019,0.0065,0.0079,0.0102,0.0122,0.012,0.0157,0.0164,0.009,0.0091,0.0091,0.0092,0,0,-0.0381,-0.0387,-0.0389,-0.0396,-0.0366,-0.0361,-0.0339,-0.0309,-0.0298,-0.0243,-0.0219,-0.0134,-0.0099,-0.0059,-0.0004,0.0044,0.0085,0.0075,0.0079,0.01,0.0186,0.0172,0.018,0.0114,0.0116,0.0117,0.02,0,-0.0412,-0.0444,-0.0429,-0.0443,-0.0453,-0.041,-0.0395,-0.0359,-0.0319,-0.0285,-0.0207,-0.0163,-0.0113,-0.0087,-0.003,0.0059,0.0104,0.006,0.0193,0.0197,0.0178,0.0188,0.012,0.0206,0.0208,0.0209,0.021,0,-0.045,-0.0465,-0.0497,-0.0496,-0.0495,-0.0495,-0.0466,-0.0445,-0.0381,-0.035,-0.0287,-0.0227,-0.0141,-0.0107,0.0042,0.0011,0.0089,0.0156,0.0161,0.0175,0.0198,0.0214,0.0225,0.0223,0.0222,0.0221,0.0221,0,-0.0494,-0.051,-0.0542,-0.0541,-0.0531,-0.0536,-0.0523,-0.0473,-0.046,-0.0393,-0.0374,-0.0264,-0.0213,-0.0094,0.0047,0.0046,0.0203,0.0222,0.0283,0.0282,0.0294,0.0292,0.0318,0.0318,0.0317,0.0317,0.0317,0,-0.0532,-0.0557,-0.0573,-0.0591,-0.0622,-0.0591,-0.0605,-0.0574,-0.0533,-0.0517,-0.0417,-0.0377,-0.0207,-0.0094,0.0032,0.018,0.0197,0.0279,0.0306,0.0267,0.0261,0.0299,0.0296,0.032,0.032,0.0319,0.0318,0,-0.0577,-0.0587,-0.0629,-0.0642,-0.0651,-0.0673,-0.0673,-0.0675,-0.0628,-0.0604,-0.0586,-0.0459,-0.0307,-0.0136,0.006,0.0152,0.0299,0.0346,0.028,0.0303,0.0345,0.0338,0.0417,0.0418,0.0418,0.0418,0.0418,0,-0.0597,-0.0629,-0.068,-0.071,-0.0724,-0.075,-0.0764,-0.0731,-0.0724,-0.0649,-0.0637,-0.05,-0.0395,-0.0126,0.0048,0.0284,0.0316,0.038,0.0373,0.0338,0.0358,0.035,0.0343,0.0419,0.0419,0.0419,0.0419,0,-0.0636,-0.0668,-0.0706,-0.0772,-0.0808,-0.0835,-0.085,-0.0853,-0.08,-0.0769,-0.0663,-0.0516,-0.0348,-0.0133,0.005,0.0218,0.0334,0.0384,0.0384,0.0378,0.0341,0.0358,0.0351,0.042,0.042,0.042,0.042,0,-0.0662,-0.0709,-0.0768,-0.0816,-0.087,-0.0895,-0.0898,-0.0867,-0.0847,-0.0754,-0.0724,-0.0529,-0.0414,-0.0168,0.0002,0.0166,0.0205,0.0248,0.0257,0.0258,0.0187,0.0116,0.015,0,0,0,0,0,-0.0675,-0.0735,-0.0797,-0.0851,-0.0905,-0.0926,-0.0939,-0.0924,-0.0883,-0.0814,-0.0762,-0.0598,-0.0334,-0.0217,-0.0054,-0.0005,0.0221,0.0188,0.0271,0.0425,0.0424,0.0367,0,0,0,0,0,0,-0.0686,-0.0766,-0.0802,-0.0863,-0.0901,-0.0946,-0.0955,-0.0926,-0.087,-0.0812,-0.0665,-0.0578,-0.0317,-0.0427,-0.0058,-0.0008,0.0062,0.0318,0.0321,0.0425,0.0424,0.0423,0.0365,0,0,0,0,0]}]]